Weather History for Missoula, MT

Change the Weather History Date:

Wednesday, July 17, 2013

  Actual Average Record
Temperature  
Mean Temperature 80 °F 69 °F  
Max Temperature 96 °F 87 °F 103 °F (1919)
Min Temperature 64 °F 52 °F 35 °F (1914)
Degree Days  
Heating Degree Days 0 1  
Month to date heating degree days 0 28  
Since 1 June heating degree days 141 188  
Since 1 July heating degree days 0 28  
Cooling Degree Days 15 5  
Month to date cooling degree days 139 69  
Year to date cooling degree days 186 112  
Since 1 June cooling degree days 182 106  
Growing Degree Days 32 (Base 50)    
Moisture  
Dew Point 51 °F    
Average Humidity 38    
Maximum Humidity 57    
Minimum Humidity 19    
Precipitation  
Precipitation T in 0.02 in 0.69 in (2012)
Month to date precipitation 0.09 0.60  
Year to date precipitation 5.90 8.45  
Snow  
Snow 0.00 in - - ()
Month to date snowfall 0.0  
Year to date snowfall 27.4  
Since 1 July snowfall 0.0  
Snow Depth 0.00 in    
Sea Level Pressure  
Sea Level Pressure 29.97 in    
Wind  
Wind Speed 12 mph (ENE)    
Max Wind Speed 26 mph    
Max Gust Speed 31 mph    
Visibility 10 miles    
Events      
T = Trace of Precipitation, MM = Missing Value Source: NWS Daily Summary

Daily Weather History Graph

Daily Weather History Graph

Search for Another Location

Airport:

Trip Planner

Search our weather history database for the weather conditions in past years. The results will help you decide how hot, cold, wet, or windy it might be!

Date:

Astronomy

Jul. 17, 2013 Rise Set
Actual Time 5:59 AM MDT 9:25 PM MDT
Civil Twilight 5:21 AM MDT 10:02 PM MDT
Nautical Twilight 4:31 AM MDT 10:52 PM MDT
Astronomical Twilight 3:26 AM MDT 11:56 PM MDT
Moon 4:14 PM MDT (7/17) 1:16 AM MDT (7/17)
Length of Visible Light 16h 41m
Length of Day
15h 26m
Waxing Gibbous, 68% of the Moon is Illuminated
Jul 17
Waxing Gibbous
Jul 22
Full
Jul 29
Last Quarter
Aug 6
New
Aug 14
First Quarter

Hourly Weather History & Observations

Time (MDT) Temp. Heat Index Dew Point Humidity Pressure Visibility Wind Dir Wind Speed Gust Speed Precip Events Conditions
12:53 AM 75.0 °F - 52.0 °F 44% 29.95 in 10.0 mi ESE 16.1 mph - N/A   Clear
1:53 AM 75.0 °F - 52.0 °F 44% 29.96 in 10.0 mi ESE 18.4 mph - N/A   Clear
2:53 AM 73.0 °F - 50.0 °F 44% 29.96 in 10.0 mi East 13.8 mph - N/A   Clear
3:53 AM 72.0 °F - 51.1 °F 48% 29.96 in 10.0 mi ESE 12.7 mph - N/A   Clear
4:53 AM 72.0 °F - 53.1 °F 51% 29.97 in 10.0 mi East 16.1 mph - N/A   Clear
5:53 AM 71.1 °F - 52.0 °F 51% 29.99 in 10.0 mi ESE 16.1 mph - N/A   Clear
6:53 AM 70.0 °F - 53.1 °F 55% 29.99 in 10.0 mi SE 16.1 mph - N/A   Clear
7:53 AM 73.0 °F - 52.0 °F 48% 29.99 in 10.0 mi ESE 13.8 mph - N/A   Clear
8:53 AM 75.0 °F - 54.0 °F 48% 30.01 in 10.0 mi ESE 16.1 mph - N/A   Clear
9:53 AM 79.0 °F - 54.0 °F 42% 29.99 in 10.0 mi ESE 15.0 mph - N/A   Clear
10:53 AM 82.9 °F 82.0 °F 55.0 °F 38% 29.98 in 8.0 mi ESE 12.7 mph - N/A   Clear
11:53 AM 84.0 °F 83.0 °F 55.9 °F 38% 29.97 in 10.0 mi SSE 8.1 mph 19.6 mph N/A   Clear
12:53 PM 87.1 °F 85.7 °F 55.9 °F 35% 29.95 in 10.0 mi ESE 6.9 mph - N/A   Clear
1:53 PM 90.0 °F 88.1 °F 55.9 °F 31% 29.92 in 10.0 mi Variable 4.6 mph - N/A   Clear
2:53 PM 89.1 °F 86.9 °F 54.0 °F 30% 29.91 in 10.0 mi WNW 5.8 mph - N/A   Mostly Cloudy
3:53 PM 90.0 °F 88.8 °F 57.9 °F 34% 29.89 in 10.0 mi North 6.9 mph - 0.00 in   Clear
4:53 PM 93.9 °F - 52.0 °F 24% 29.88 in 10.0 mi NW 12.7 mph 23.0 mph N/A   Clear
5:53 PM 93.9 °F - 50.0 °F 22% 29.88 in 10.0 mi WNW 15.0 mph 26.5 mph N/A   Partly Cloudy
6:53 PM 91.0 °F - 50.0 °F 24% 29.91 in 10.0 mi WNW 21.9 mph 26.5 mph N/A   Clear
7:53 PM 89.1 °F - 43.0 °F 20% 29.94 in 10.0 mi WNW 15.0 mph - N/A   Clear
8:53 PM 82.9 °F - 46.9 °F 28% 29.97 in 10.0 mi WNW 3.5 mph - N/A   Clear
9:53 PM 77.0 °F - 44.1 °F 31% 30.01 in 10.0 mi WNW 9.2 mph - N/A   Clear
10:21 PM 73.4 °F - 44.6 °F 36% 30.11 in 10.0 mi NNW 5.8 mph - N/A   Partly Cloudy
10:53 PM 73.9 °F - 45.0 °F 35% 30.04 in 10.0 mi NNW 6.9 mph - N/A   Partly Cloudy
11:53 PM 66.9 °F - 45.0 °F 45% 30.07 in 10.0 mi West 4.6 mph - N/A   Clear